FW8109 Weather Reports


time (UTC)temp
C
wind
direction
speed
KPH
gust
KPH
rain 1hr
cm
rain 24hr
cm
rain mn
cm
humidity
%
barometer
mb
20260503173821 16 0 0.0 1.6 0.00 0.00 0.00 88 1015.7
20260503172821 16 164 0.0 1.6 0.00 0.00 0.00 88 1015.7
20260503171821 17 267 0.0 1.6 0.00 0.00 0.00 88 1015.7
20260503170821 17 353 0.0 1.6 0.00 0.00 0.00 87 1015.8
20260503150813 18 0 0.0 3.2 0.00 0.00 0.00 86 1016.7
20260503150252 18 151 0.0 3.2 0.00 0.00 0.00 86 1016.9
20260503130809 19 0 0.0 3.2 0.00 0.00 0.00 86 1018.1
20260503100240 20 45 1.6 8.0 0.00 0.00 0.00 83 1018.5
20260503080746 20 0 1.6 4.8 0.00 0.00 0.00 81 1018.2
20260503072746 21 17 1.6 4.8 0.00 0.00 0.00 80 1018.2
20260503072225 21 0 1.6 11.3 0.00 0.00 0.00 79 1018.1
20260503070745 21 135 1.6 9.7 0.00 0.00 0.00 79 1018.0
20260503054738 23 12 1.6 6.4 0.00 0.00 0.00 74 1018.0
20260503053739 23 277 3.2 9.7 0.00 0.00 0.00 74 1018.2
20260503052737 23 157 3.2 9.7 0.00 0.00 0.00 73 1018.4
20260503052216 23 35 1.6 8.0 0.00 0.00 0.00 73 1018.3
20260503050736 23 116 3.2 9.7 0.00 0.00 0.00 72 1018.3
20260503045736 23 25 3.2 8.0 0.00 0.00 0.00 71 1018.4
20260503044735 23 38 1.6 8.0 0.00 0.00 0.00 71 1018.4
20260503044213 23 99 1.6 9.7 0.00 0.00 0.00 71 1018.4
20260503043216 23 62 3.2 8.0 0.00 0.00 0.00 68 1018.6
20260503041735 24 197 3.2 9.7 0.00 0.00 0.00 68 1018.4
20260503040734 24 73 3.2 8.0 0.00 0.00 0.00 67 1018.4
20260503035734 24 0 3.2 9.7 0.00 0.00 0.00 67 1018.5
20260503034735 24 273 3.2 8.0 0.00 0.00 0.00 66 1018.6
20260503033736 24 19 3.2 8.0 0.00 0.00 0.00 67 1018.7
20260503032735 24 9 3.2 9.7 0.00 0.00 0.00 66 1018.7
20260503031734 24 118 3.2 9.7 0.00 0.00 0.00 68 1018.8
20260503030734 24 289 3.2 9.7 0.00 0.00 0.00 68 1019.0
20260503025735 24 27 3.2 12.9 0.00 0.00 0.00 68 1019.1
20260503024735 24 341 3.2 11.3 0.00 0.00 0.00 68 1019.3
20260503023734 24 78 3.2 9.7 0.00 0.00 0.00 68 1019.5
20260503022734 24 334 3.2 11.3 0.00 0.00 0.00 68 1019.5
20260503021733 23 62 3.2 9.7 0.00 0.00 0.00 69 1019.8
20260503020732 23 185 3.2 9.7 0.00 0.00 0.00 70 1020.1
20260503015733 23 131 3.2 8.0 0.00 0.00 0.00 70 1020.1
20260503014733 24 122 3.2 9.7 0.00 0.00 0.00 70 1020.2
20260503014213 24 105 3.2 6.4 0.00 0.00 0.00 69 1020.3
20260503012733 24 0 3.2 9.7 0.00 0.00 0.00 69 1020.4
20260503011730 25 9 3.2 11.3 0.00 0.00 0.00 66 1020.5
20260503010730 24 83 3.2 9.7 0.00 0.00 0.00 67 1020.8
20260503005727 24 93 3.2 9.7 0.00 0.00 0.00 69 1020.8
20260503004727 24 122 3.2 9.7 0.00 0.00 0.00 70 1021.1
20260503003729 24 292 1.6 6.4 0.00 0.00 0.00 70 1021.2
20260503002728 23 0 3.2 9.7 0.00 0.00 0.00 71 1021.4
20260503001726 23 78 1.6 8.0 0.00 0.00 0.00 73 1021.5
20260503000726 23 98 3.2 11.3 0.00 0.00 0.00 73 1021.5
20260502235726 23 91 3.2 6.4 0.00 0.00 0.00 72 1021.6
20260502234726 23 0 1.6 3.2 0.00 0.00 0.00 73 1021.8
20260502233726 23 0 1.6 6.4 0.00 0.00 0.00 72 1021.9
20260502232725 22 229 1.6 8.0 0.00 0.00 0.00 74 1021.9
20260502231727 22 179 1.6 8.0 0.00 0.00 0.00 74 1021.9
20260502230726 22 0 1.6 6.4 0.00 0.00 0.00 74 1021.8
20260502230206 22 7 1.6 6.4 0.00 0.00 0.00 75 1021.8
20260502224724 22 54 1.6 4.8 0.00 0.00 0.00 75 1021.9
20260502223723 22 0 1.6 4.8 0.00 0.00 0.00 76 1021.9
20260502222721 21 154 1.6 3.2 0.00 0.00 0.00 78 1021.8
20260502221722 20 8 0.0 3.2 0.00 0.00 0.00 83 1021.8
20260502220718 19 0 0.0 3.2 0.00 0.00 0.00 88 1021.9
20260502215718 17 0 0.0 3.2 0.00 0.00 0.00 93 1021.8
20260502214719 16 152 0.0 3.2 0.00 0.00 0.00 94 1021.7
20260502213719 16 0 0.0 3.2 0.00 0.00 0.00 94 1021.5
20260502212716 15 157 0.0 3.2 0.00 0.00 0.00 94 1021.6
20260502211716 15 149 0.0 3.2 0.00 0.00 0.00 94 1021.5
20260502211156 15 76 0.0 1.6 0.00 0.00 0.00 94 1021.5
20260502205717 15 0 0.0 1.6 0.00 0.00 0.00 94 1021.4
20260502205207 15 0 0.0 3.2 0.00 0.00 0.00 93 1021.3
20260502203717 15 161 0.0 1.6 0.00 0.00 0.00 93 1021.2
20260502202718 15 0 0.0 1.6 0.00 0.00 0.00 93 1021.1
20260502201718 14 0 0.0 1.6 0.00 0.00 0.00 93 1021.0
20260502200715 15 164 0.0 1.6 0.00 0.00 0.00 93 1021.0
20260502195715 15 0 0.0 1.6 0.00 0.00 0.00 93 1021.0
20260502194714 15 0 0.0 1.6 0.00 0.00 0.00 92 1020.9
20260502193715 15 0 0.0 1.6 0.00 0.00 0.00 92 1020.8
20260502192715 15 0 0.0 1.6 0.00 0.00 0.00 92 1020.9
20260502191715 16 0 0.0 1.6 0.00 0.00 0.00 92 1020.8
20260502190713 16 0 0.0 1.6 0.00 0.00 0.00 92 1020.8
20260502190158 16 0 0.0 3.2 0.00 0.00 0.00 93 1020.8
20260502184712 16 129 0.0 1.6 0.00 0.00 0.00 92 1020.8
20260502183712 16 140 0.0 3.2 0.00 0.00 0.00 92 1020.7
20260502182714 16 0 0.0 3.2 0.00 0.00 0.00 93 1020.7
20260502181710 16 146 0.0 3.2 0.00 0.00 0.00 93 1020.8